Starlink 30138

operational
NORAD ID: 57605 Int'l Des: 2023-119 Owner: SPXS Country: US Constellation: starlink
LEOCIRCULAR

Starlink 30138について

説明を読み込み中...

リアルタイム位置

3D地球を読み込み中...

次回通過

高度履歴

Altitude vs Time

uPlot chart will show altitude changes over time

軌道要素

1 57605U 23119D 25304.65275787 .00000215 00000-0 31023-4 0 9991
2 57605 43.0039 62.9129 0001446 271.0692 88.9985 15.02535472123675
Epoch: Oct 31, 2025 • Age: 20 hours

現在のステータス

高度 571.0 km
速度 7.58 km/s
衛星直下点 -41.97°S, 91.51°E
打ち上げ日 Aug 11, 2023
運用期間 2.2 years
タイプ internet

技術仕様

分類 Payload
質量 730.00 kg
乾燥質量 700.00 kg
総質量 730.00 kg
長さ 0.30 m
直径 4.10 m
スパン 29.00 m
形状 Box + pan
製造者 SPXS
バスタイプ Starlink V2M
フェーズステータス In Orbit
所有者/国 SPXS/US

大規模コンステレーション

Loading constellations...